This is the latest recevied weather packets stored in our database for station/object WY1B. If no packets are shown the sender has not sent any weather packets the latest 10 day(s).
| Time | Temp. | Humidity | Pressure | Rain* | Wind** | Luminosity | Snow |
|---|---|---|---|---|---|---|---|
| 1787877104 | 43.89° C | 17% | 1001 hPa | 0 mm | - | 108 W/m² | - |
| 1787876803 | 43.33° C | 17% | 1001.2 hPa | 0 mm | - | 108 W/m² | - |
| 1787876498 | 43.89° C | 17% | 1000.9 hPa | 0 mm | - | 81 W/m² | - |
| 1787876197 | 44.44° C | 17% | 1001 hPa | 0 mm | - | 86 W/m² | - |
| 1787875892 | 45° C | 16% | 1001.2 hPa | 0 mm | - | 88 W/m² | - |
| 1787875592 | 46.11° C | 16% | 1001.1 hPa | 0 mm | - | 129 W/m² | - |
| 1787875292 | 46.67° C | 16% | 1001 hPa | 0 mm | - | 169 W/m² | - |
| 1787874989 | 46.67° C | 16% | 1001 hPa | 0 mm | - | 220 W/m² | - |
| 1787874685 | 46.67° C | 16% | 1000.9 hPa | 0 mm | - | 243 W/m² | - |
| 1787874383 | 46.67° C | 16% | 1001 hPa | 0 mm | - | 259 W/m² | - |
| 1787874079 | 46.67° C | 16% | 1000.9 hPa | 0 mm | - | 220 W/m² | - |
| 1787873778 | 47.22° C | 15% | 1001.1 hPa | 0 mm | - | 230 W/m² | - |
| 1787873474 | 47.22° C | 15% | 1001.3 hPa | 0 mm | - | 160 W/m² | - |
| 1787873169 | 47.78° C | 15% | 1001.1 hPa | 0 mm | - | 150 W/m² | - |
| 1787872867 | 47.78° C | 15% | 1001.3 hPa | 0 mm | - | 232 W/m² | - |
| 1787872563 | 48.33° C | 15% | 1001.2 hPa | 0 mm | - | 259 W/m² | - |
| 1787872258 | 47.78° C | 15% | 1001.3 hPa | 0 mm | - | 351 W/m² | - |
| 1787871957 | 47.78° C | 15% | 1001.3 hPa | 0 mm | - | 365 W/m² | - |
| 1787871653 | 48.33° C | 15% | 1001.4 hPa | 0 mm | - | 352 W/m² | - |
| 1787871349 | 48.33° C | 15% | 1001.4 hPa | 0 mm | - | 350 W/m² | - |
| 1787871044 | 47.78° C | 14% | 1001.6 hPa | 0 mm | - | 395 W/m² | - |
| 1787870743 | 47.78° C | 14% | 1001.7 hPa | 0 mm | - | 421 W/m² | - |
| 1787870439 | 47.78° C | 15% | 1001.5 hPa | 0 mm | - | 433 W/m² | - |
| 1787870138 | 47.78° C | 15% | 1001.7 hPa | 0 mm | - | 459 W/m² | - |
| 1787869833 | 47.78° C | 16% | 1002 hPa | 0 mm | - | 426 W/m² | - |
* Rain latest hour (hover to see other rain measurements)
** Current wind speed in m/s (hover to see current wind gust speed)